Voltar ao catálogo

MARINA

AtivoRádio AmadorSSO
NORAD 69920·PAYLOAD·🇫🇮 Finland

Lançado Jul 7, 2026 de Vandenberg Space Force Base

Loading…

Próximas Passagens (próximas 24 horas)

TLE

AtualizadoSource: AMSAT

Época: Sep 13, 2026, 16:18 UTC

1 69920U 26156BD  26256.67967705  .00001885  00000-0  19066-3 0  9991
2 69920  97.7445 156.0100 0006038 294.2224  65.8364 14.92160181 10195

Acompanhe MARINA em tempo real com AllMySat

Download on the App Store